| time (UTC) | temp F | wind direction | speed knots | gust knots | rain 1hr in | rain 24hr in | rain mn in | humidity % | barometer mb |
| 20260906210503 | 95 | 202 | 5.2 | 12.2 | 0.00 | 0.00 | 0.00 | 31 | 1012.1 |
| 20260906210003 | 95 | 199 | 5.2 | 13.0 | 0.00 | 0.00 | 0.00 | 30 | 1012.2 |
| 20260906205504 | 95 | 203 | 5.2 | 13.0 | 0.00 | 0.00 | 0.00 | 31 | 1012.2 |
| 20260906205003 | 94 | 202 | 5.2 | 8.7 | 0.00 | 0.00 | 0.00 | 32 | 1012.3 |
| 20260906204503 | 94 | 210 | 6.1 | 10.4 | 0.00 | 0.00 | 0.00 | 31 | 1012.6 |
| 20260906204004 | 94 | 215 | 6.1 | 10.4 | 0.00 | 0.00 | 0.00 | 32 | 1012.7 |
| 20260906203504 | 93 | 211 | 6.1 | 10.4 | 0.00 | 0.00 | 0.00 | 33 | 1012.8 |
| 20260906203215 | 93 | 210 | 6.1 | 13.0 | 0.00 | 0.00 | 0.00 | 34 | 1012.9 |
| 20260906202504 | 93 | 198 | 5.2 | 13.0 | 0.00 | 0.00 | 0.00 | 33 | 1013.0 |
| 20260906202004 | 93 | 197 | 4.3 | 11.3 | 0.00 | 0.00 | 0.00 | 32 | 1013.2 |
| 20260906201714 | 93 | 201 | 5.2 | 11.3 | 0.00 | 0.00 | 0.00 | 32 | 1013.2 |
| 20260906201004 | 92 | 200 | 4.3 | 8.7 | 0.00 | 0.00 | 0.00 | 34 | 1013.2 |
| 20260906200504 | 92 | 201 | 4.3 | 10.4 | 0.00 | 0.00 | 0.00 | 33 | 1013.2 |
| 20260906200004 | 91 | 196 | 3.5 | 10.4 | 0.00 | 0.00 | 0.00 | 35 | 1013.3 |
| 20260906195504 | 91 | 190 | 4.3 | 10.4 | 0.00 | 0.00 | 0.00 | 36 | 1013.4 |
| 20260906195004 | 91 | 204 | 4.3 | 10.4 | 0.00 | 0.00 | 0.00 | 37 | 1013.4 |
| 20260906194503 | 90 | 209 | 3.5 | 8.7 | 0.00 | 0.00 | 0.00 | 37 | 1013.5 |
| 20260906194004 | 90 | 194 | 3.5 | 7.8 | 0.00 | 0.00 | 0.00 | 36 | 1013.6 |
| 20260906193503 | 90 | 194 | 3.5 | 7.8 | 0.00 | 0.00 | 0.00 | 36 | 1013.7 |
| 20260906193003 | 90 | 187 | 3.5 | 7.8 | 0.00 | 0.00 | 0.00 | 37 | 1013.8 |
| 20260906192713 | 90 | 185 | 3.5 | 7.8 | 0.00 | 0.00 | 0.00 | 37 | 1013.8 |
| 20260906192003 | 89 | 198 | 3.5 | 7.8 | 0.00 | 0.00 | 0.00 | 37 | 1013.9 |
| 20260906191503 | 89 | 195 | 4.3 | 7.8 | 0.00 | 0.00 | 0.00 | 36 | 1013.9 |
| 20260906191003 | 89 | 191 | 2.6 | 7.8 | 0.00 | 0.00 | 0.00 | 35 | 1014.0 |
| 20260906190504 | 88 | 166 | 2.6 | 9.6 | 0.00 | 0.00 | 0.00 | 38 | 1014.1 |
| 20260906190004 | 88 | 139 | 3.5 | 9.6 | 0.00 | 0.00 | 0.00 | 38 | 1014.1 |
| 20260906185504 | 88 | 158 | 2.6 | 6.1 | 0.00 | 0.00 | 0.00 | 38 | 1014.3 |
| 20260906185214 | 88 | 163 | 2.6 | 5.2 | 0.00 | 0.00 | 0.00 | 38 | 1014.2 |
| 20260906184504 | 88 | 174 | 2.6 | 5.2 | 0.00 | 0.00 | 0.00 | 38 | 1014.3 |
| 20260906184003 | 87 | 156 | 2.6 | 5.2 | 0.00 | 0.00 | 0.00 | 39 | 1014.3 |
| 20260906183503 | 86 | 117 | 1.7 | 5.2 | 0.00 | 0.00 | 0.00 | 42 | 1014.5 |
| 20260906183004 | 86 | 103 | 1.7 | 5.2 | 0.00 | 0.00 | 0.00 | 43 | 1014.6 |
| 20260906182714 | 86 | 98 | 2.6 | 5.2 | 0.00 | 0.00 | 0.00 | 42 | 1014.7 |
| 20260906182003 | 86 | 99 | 2.6 | 5.2 | 0.00 | 0.00 | 0.00 | 40 | 1014.8 |
| 20260906181504 | 85 | 105 | 1.7 | 4.3 | 0.00 | 0.00 | 0.00 | 43 | 1014.7 |
| 20260906181003 | 85 | 103 | 2.6 | 5.2 | 0.00 | 0.00 | 0.00 | 41 | 1014.8 |
| 20260906180503 | 85 | 94 | 2.6 | 6.1 | 0.00 | 0.00 | 0.00 | 42 | 1014.9 |
| 20260906180004 | 85 | 102 | 2.6 | 6.1 | 0.00 | 0.00 | 0.00 | 42 | 1015.0 |
| 20260906175503 | 85 | 108 | 1.7 | 5.2 | 0.00 | 0.00 | 0.00 | 43 | 1015.0 |
| 20260906175004 | 85 | 116 | 1.7 | 5.2 | 0.00 | 0.00 | 0.00 | 43 | 1015.0 |
| 20260906174503 | 85 | 193 | 0.9 | 5.2 | 0.00 | 0.00 | 0.00 | 44 | 1015.1 |
| 20260906174004 | 84 | 141 | 0.9 | 5.2 | 0.00 | 0.00 | 0.00 | 45 | 1015.3 |
| 20260906173503 | 83 | 110 | 0.9 | 5.2 | 0.00 | 0.00 | 0.00 | 47 | 1015.4 |
| 20260906173217 | 82 | 102 | 1.7 | 4.3 | 0.00 | 0.00 | 0.00 | 47 | 1015.4 |
| 20260906172504 | 82 | 84 | 2.6 | 5.2 | 0.00 | 0.00 | 0.00 | 47 | 1015.6 |
| 20260906172003 | 82 | 78 | 1.7 | 5.2 | 0.00 | 0.00 | 0.00 | 46 | 1015.6 |
| 20260906171503 | 82 | 85 | 0.9 | 4.3 | 0.00 | 0.00 | 0.00 | 47 | 1015.7 |
| 20260906171004 | 81 | 64 | 1.7 | 6.1 | 0.00 | 0.00 | 0.00 | 50 | 1015.6 |
| 20260906170503 | 80 | 53 | 1.7 | 6.1 | 0.00 | 0.00 | 0.00 | 50 | 1015.6 |
| 20260906170003 | 80 | 69 | 1.7 | 5.2 | 0.00 | 0.00 | 0.00 | 51 | 1015.7 |
| 20260906165504 | 79 | 88 | 2.6 | 5.2 | 0.00 | 0.00 | 0.00 | 51 | 1015.7 |
| 20260906165003 | 79 | 95 | 2.6 | 6.1 | 0.00 | 0.00 | 0.00 | 51 | 1015.6 |
| 20260906164504 | 79 | 93 | 2.6 | 6.1 | 0.00 | 0.00 | 0.00 | 53 | 1015.7 |
| 20260906164004 | 79 | 100 | 1.7 | 5.2 | 0.00 | 0.00 | 0.00 | 53 | 1015.6 |
| 20260906163503 | 79 | 138 | 0.9 | 3.5 | 0.00 | 0.00 | 0.00 | 52 | 1015.6 |
| 20260906163004 | 79 | 116 | 0.9 | 3.5 | 0.00 | 0.00 | 0.00 | 53 | 1015.7 |
| 20260906162503 | 79 | 91 | 0.9 | 2.6 | 0.00 | 0.00 | 0.00 | 53 | 1015.8 |
| 20260906162004 | 78 | 96 | 1.7 | 3.5 | 0.00 | 0.00 | 0.00 | 53 | 1015.7 |
| 20260906161503 | 78 | 102 | 0.9 | 3.5 | 0.00 | 0.00 | 0.00 | 53 | 1015.6 |
| 20260906161003 | 78 | 106 | 0.9 | 3.5 | 0.00 | 0.00 | 0.00 | 55 | 1015.6 |
| 20260906160503 | 78 | 138 | 0.9 | 3.5 | 0.00 | 0.00 | 0.00 | 54 | 1015.6 |
| 20260906160004 | 77 | 158 | 0.9 | 2.6 | 0.00 | 0.00 | 0.00 | 55 | 1015.6 |
| 20260906155503 | 76 | 128 | 0.9 | 3.5 | 0.00 | 0.00 | 0.00 | 56 | 1015.5 |
| 20260906155003 | 76 | 182 | 1.7 | 5.2 | 0.00 | 0.00 | 0.00 | 56 | 1015.6 |
| 20260906154504 | 77 | 206 | 2.6 | 5.2 | 0.00 | 0.00 | 0.00 | 56 | 1015.4 |
| 20260906154003 | 76 | 213 | 1.7 | 5.2 | 0.00 | 0.00 | 0.00 | 56 | 1015.4 |
| 20260906153504 | 77 | 202 | 0.9 | 5.2 | 0.00 | 0.00 | 0.00 | 55 | 1015.7 |
| 20260906153004 | 76 | 188 | 0.9 | 3.5 | 0.00 | 0.00 | 0.00 | 57 | 1015.7 |
| 20260906152716 | 76 | 165 | 0.9 | 3.5 | 0.00 | 0.00 | 0.00 | 57 | 1015.7 |
| 20260906152004 | 75 | 99 | 1.7 | 4.3 | 0.00 | 0.00 | 0.00 | 59 | 1015.6 |
| 20260906151717 | 75 | 99 | 0.9 | 4.3 | 0.00 | 0.00 | 0.00 | 59 | 1015.6 |
| 20260906151003 | 74 | 77 | 0.9 | 3.5 | 0.00 | 0.00 | 0.00 | 60 | 1015.5 |
| 20260906150504 | 74 | 89 | 1.7 | 3.5 | 0.00 | 0.00 | 0.00 | 58 | 1015.4 |
| 20260906150004 | 75 | 150 | 0.9 | 2.6 | 0.00 | 0.00 | 0.00 | 58 | 1015.4 |
| 20260906145504 | 75 | 195 | 0.9 | 2.6 | 0.00 | 0.00 | 0.00 | 58 | 1015.4 |
| 20260906145217 | 75 | 243 | 0.9 | 2.6 | 0.00 | 0.00 | 0.00 | 58 | 1015.5 |
| 20260906144503 | 74 | 219 | 0.9 | 2.6 | 0.00 | 0.00 | 0.00 | 59 | 1015.5 |
| 20260906144004 | 74 | 209 | 0.9 | 2.6 | 0.00 | 0.00 | 0.00 | 60 | 1015.6 |
| 20260906143715 | 73 | 229 | 0.9 | 2.6 | 0.00 | 0.00 | 0.00 | 60 | 1015.6 |
| 20260906143004 | 72 | 237 | 1.7 | 4.3 | 0.00 | 0.00 | 0.00 | 62 | 1015.4 |
| 20260906142503 | 72 | 237 | 1.7 | 5.2 | 0.00 | 0.00 | 0.00 | 63 | 1015.4 |
| 20260906142214 | 72 | 235 | 2.6 | 5.2 | 0.00 | 0.00 | 0.00 | 62 | 1015.4 |
| 20260906141712 | 72 | 216 | 1.7 | 5.2 | 0.00 | 0.00 | 0.00 | 63 | 1015.4 |
| 20260906141004 | 71 | 227 | 1.7 | 3.5 | 0.00 | 0.00 | 0.00 | 64 | 1015.4 |
| 20260906140503 | 71 | 257 | 1.7 | 3.5 | 0.00 | 0.00 | 0.00 | 64 | 1015.4 |
| 20260906140216 | 71 | 253 | 0.9 | 3.5 | 0.00 | 0.00 | 0.00 | 64 | 1015.4 |
| 20260906135504 | 71 | 154 | 0.0 | 1.7 | 0.00 | 0.00 | 0.00 | 67 | 1015.5 |
| 20260906135217 | 70 | 124 | 0.0 | 1.7 | 0.00 | 0.00 | 0.00 | 70 | 1015.4 |
| 20260906134503 | 69 | 123 | 0.9 | 2.6 | 0.00 | 0.00 | 0.00 | 74 | 1015.4 |
| 20260906134004 | 68 | 112 | 0.9 | 1.7 | 0.00 | 0.00 | 0.00 | 75 | 1015.4 |
| 20260906133503 | 68 | 112 | 0.0 | 1.7 | 0.00 | 0.00 | 0.00 | 77 | 1015.2 |
| 20260906133003 | 67 | 117 | 0.0 | 0.9 | 0.00 | 0.00 | 0.00 | 77 | 1015.3 |
| 20260906132717 | 67 | 0 | 0.0 | 0.0 | 0.00 | 0.00 | 0.00 | 78 | 1015.3 |
| 20260906132003 | 66 | 0 | 0.0 | 0.0 | 0.00 | 0.00 | 0.00 | 79 | 1015.2 |
| 20260906131504 | 65 | 0 | 0.0 | 0.0 | 0.00 | 0.00 | 0.00 | 82 | 1015.0 |
| 20260906131004 | 64 | 0 | 0.0 | 0.0 | 0.00 | 0.00 | 0.00 | 83 | 1014.8 |
| 20260906130714 | 63 | 0 | 0.0 | 0.0 | 0.00 | 0.00 | 0.00 | 84 | 1014.8 |
| 20260906130217 | 62 | 203 | 0.0 | 0.9 | 0.00 | 0.00 | 0.00 | 86 | 1014.8 |
| 20260906125503 | 61 | 204 | 0.0 | 0.9 | 0.00 | 0.00 | 0.00 | 83 | 1014.9 |
| 20260906125003 | 61 | 203 | 0.9 | 1.7 | 0.00 | 0.00 | 0.00 | 81 | 1014.6 |
| 20260906124504 | 62 | 204 | 0.9 | 2.6 | 0.00 | 0.00 | 0.00 | 82 | 1014.6 |
| 20260906124003 | 63 | 203 | 0.9 | 2.6 | 0.00 | 0.00 | 0.00 | 82 | 1014.5 |
| 20260906123503 | 63 | 135 | 0.0 | 0.9 | 0.00 | 0.00 | 0.00 | 83 | 1014.5 |
| 20260906123004 | 63 | 132 | 0.0 | 0.9 | 0.00 | 0.00 | 0.00 | 83 | 1014.3 |
| 20260906122503 | 63 | 134 | 0.0 | 0.9 | 0.00 | 0.00 | 0.00 | 83 | 1014.3 |
| 20260906122003 | 63 | 134 | 0.0 | 0.9 | 0.00 | 0.00 | 0.00 | 81 | 1014.3 |
| 20260906121714 | 63 | 128 | 0.0 | 0.9 | 0.00 | 0.00 | 0.00 | 83 | 1014.3 |
| 20260906121004 | 63 | 111 | 0.0 | 0.9 | 0.00 | 0.00 | 0.00 | 81 | 1014.2 |
| 20260906120504 | 64 | 110 | 0.0 | 1.7 | 0.00 | 0.00 | 0.00 | 83 | 1014.3 |
| 20260906120212 | 64 | 110 | 0.0 | 1.7 | 0.00 | 0.00 | 0.00 | 82 | 1014.2 |
| 20260906115503 | 64 | 139 | 0.0 | 1.7 | 0.00 | 0.00 | 0.00 | 81 | 1014.2 |
| 20260906115213 | 64 | 174 | 0.0 | 1.7 | 0.00 | 0.00 | 0.00 | 82 | 1014.1 |
| 20260906114503 | 64 | 218 | 0.0 | 1.7 | 0.00 | 0.00 | 0.00 | 83 | 1014.2 |
| 20260906114004 | 63 | 221 | 0.0 | 1.7 | 0.00 | 0.00 | 0.00 | 81 | 1014.0 |
| 20260906113503 | 64 | 146 | 0.9 | 1.7 | 0.00 | 0.00 | 0.00 | 80 | 1014.0 |
| 20260906113003 | 64 | 127 | 0.9 | 3.5 | 0.00 | 0.00 | 0.00 | 83 | 1013.9 |
| 20260906112504 | 63 | 129 | 0.9 | 3.5 | 0.00 | 0.00 | 0.00 | 85 | 1013.8 |
| 20260906112003 | 63 | 0 | 0.0 | 0.0 | 0.00 | 0.00 | 0.00 | 82 | 1014.0 |
| 20260906111503 | 63 | 0 | 0.0 | 0.0 | 0.00 | 0.00 | 0.00 | 80 | 1013.9 |
| 20260906111004 | 63 | 306 | 0.0 | 0.9 | 0.00 | 0.00 | 0.00 | 81 | 1014.0 |
| 20260906110503 | 64 | 306 | 0.0 | 0.9 | 0.00 | 0.00 | 0.00 | 81 | 1013.9 |
| 20260906110003 | 63 | 306 | 0.0 | 0.9 | 0.00 | 0.00 | 0.00 | 85 | 1013.9 |
| 20260906105504 | 62 | 0 | 0.0 | 0.0 | 0.00 | 0.00 | 0.00 | 81 | 1014.1 |
| 20260906105003 | 63 | 0 | 0.0 | 0.0 | 0.00 | 0.00 | 0.00 | 80 | 1014.0 |
| 20260906104504 | 64 | 0 | 0.0 | 0.0 | 0.00 | 0.00 | 0.00 | 82 | 1014.1 |
| 20260906104003 | 63 | 0 | 0.0 | 0.0 | 0.00 | 0.00 | 0.00 | 82 | 1013.9 |
| 20260906103503 | 63 | 0 | 0.0 | 0.0 | 0.00 | 0.00 | 0.00 | 82 | 1014.1 |
| 20260906103004 | 63 | 0 | 0.0 | 0.0 | 0.00 | 0.00 | 0.00 | 83 | 1014.1 |
| 20260906102714 | 63 | 307 | 0.0 | 0.9 | 0.00 | 0.00 | 0.00 | 83 | 1014.2 |
| 20260906102004 | 63 | 307 | 0.0 | 0.9 | 0.00 | 0.00 | 0.00 | 79 | 1014.1 |
| 20260906101503 | 63 | 0 | 0.0 | 0.0 | 0.00 | 0.00 | 0.00 | 81 | 1014.0 |
| 20260906101003 | 63 | 307 | 0.0 | 0.9 | 0.00 | 0.00 | 0.00 | 79 | 1013.9 |
| 20260906100504 | 64 | 307 | 0.0 | 1.7 | 0.00 | 0.00 | 0.00 | 78 | 1014.0 |
| 20260906100214 | 64 | 307 | 0.0 | 1.7 | 0.00 | 0.00 | 0.00 | 77 | 1014.1 |
| 20260906095503 | 66 | 0 | 0.0 | 0.0 | 0.00 | 0.00 | 0.00 | 73 | 1014.0 |
| 20260906095004 | 67 | 0 | 0.0 | 0.0 | 0.00 | 0.00 | 0.00 | 74 | 1014.2 |
| 20260906094504 | 68 | 0 | 0.0 | 0.0 | 0.00 | 0.00 | 0.00 | 72 | 1014.2 |
| 20260906094003 | 69 | 100 | 0.9 | 1.7 | 0.00 | 0.00 | 0.00 | 74 | 1014.1 |
| 20260906093504 | 69 | 99 | 0.9 | 1.7 | 0.00 | 0.00 | 0.00 | 74 | 1014.2 |
| 20260906093004 | 69 | 100 | 0.0 | 1.7 | 0.00 | 0.00 | 0.00 | 73 | 1014.1 |
| 20260906092503 | 69 | 104 | 0.0 | 0.9 | 0.00 | 0.00 | 0.00 | 72 | 1014.1 |
| 20260906092004 | 70 | 110 | 0.0 | 1.7 | 0.00 | 0.00 | 0.00 | 72 | 1014.1 |
| 20260906091503 | 70 | 113 | 0.9 | 1.7 | 0.00 | 0.00 | 0.00 | 72 | 1014.1 |
| 20260906091004 | 70 | 116 | 0.9 | 1.7 | 0.00 | 0.00 | 0.00 | 72 | 1014.1 |
| 20260906090503 | 70 | 125 | 0.9 | 1.7 | 0.00 | 0.00 | 0.00 | 71 | 1014.1 |
| 20260906090003 | 70 | 129 | 0.0 | 1.7 | 0.00 | 0.00 | 0.00 | 70 | 1014.2 |
| 20260906085504 | 71 | 125 | 0.0 | 1.7 | 0.00 | 0.00 | 0.00 | 69 | 1014.1 |
| 20260906085004 | 71 | 126 | 0.0 | 1.7 | 0.00 | 0.00 | 0.00 | 69 | 1014.0 |
| 20260906084503 | 71 | 0 | 0.0 | 0.0 | 0.00 | 0.00 | 0.00 | 68 | 1014.1 |
| 20260906084004 | 71 | 0 | 0.0 | 0.0 | 0.00 | 0.00 | 0.00 | 68 | 1014.2 |
| 20260906083504 | 71 | 0 | 0.0 | 0.0 | 0.00 | 0.00 | 0.00 | 68 | 1014.1 |
| 20260906083003 | 70 | 0 | 0.0 | 0.0 | 0.00 | 0.00 | 0.00 | 69 | 1014.3 |
| 20260906082504 | 70 | 0 | 0.0 | 0.0 | 0.00 | 0.00 | 0.00 | 69 | 1014.3 |
| 20260906082004 | 70 | 0 | 0.0 | 0.0 | 0.00 | 0.00 | 0.00 | 69 | 1014.4 |
| 20260906081716 | 70 | 0 | 0.0 | 0.0 | 0.00 | 0.00 | 0.00 | 70 | 1014.5 |
| 20260906081004 | 70 | 0 | 0.0 | 0.0 | 0.00 | 0.00 | 0.00 | 67 | 1014.4 |
| 20260906080504 | 70 | 0 | 0.0 | 0.0 | 0.00 | 0.00 | 0.00 | 66 | 1014.4 |
| 20260906080215 | 71 | 355 | 0.0 | 0.9 | 0.00 | 0.00 | 0.00 | 63 | 1014.3 |
| 20260906075504 | 72 | 355 | 0.0 | 0.9 | 0.00 | 0.00 | 0.00 | 64 | 1014.5 |
| 20260906075216 | 72 | 0 | 0.0 | 0.0 | 0.00 | 0.00 | 0.00 | 63 | 1014.5 |
| 20260906074504 | 72 | 355 | 0.0 | 0.9 | 0.00 | 0.00 | 0.00 | 64 | 1014.5 |
| 20260906074004 | 72 | 355 | 0.0 | 0.9 | 0.00 | 0.00 | 0.00 | 64 | 1014.4 |
| 20260906073503 | 72 | 355 | 0.0 | 0.9 | 0.00 | 0.00 | 0.00 | 64 | 1014.3 |
| 20260906073004 | 72 | 355 | 0.9 | 2.6 | 0.00 | 0.00 | 0.00 | 63 | 1014.3 |
| 20260906072716 | 72 | 4 | 1.7 | 2.6 | 0.00 | 0.00 | 0.00 | 62 | 1014.4 |
| 20260906072003 | 74 | 36 | 0.9 | 2.6 | 0.00 | 0.00 | 0.00 | 60 | 1014.4 |
| 20260906071503 | 74 | 114 | 0.0 | 3.5 | 0.00 | 0.00 | 0.00 | 60 | 1014.3 |
| 20260906071215 | 74 | 133 | 0.9 | 3.5 | 0.00 | 0.00 | 0.00 | 59 | 1014.4 |
| 20260906070503 | 75 | 187 | 0.9 | 3.5 | 0.00 | 0.00 | 0.00 | 57 | 1014.3 |
| 20260906070004 | 75 | 194 | 2.6 | 6.1 | 0.00 | 0.00 | 0.00 | 57 | 1014.2 |
| 20260906065504 | 75 | 193 | 3.5 | 6.1 | 0.00 | 0.00 | 0.00 | 57 | 1014.2 |
| 20260906065004 | 75 | 189 | 1.7 | 6.1 | 0.00 | 0.00 | 0.00 | 57 | 1014.1 |
| 20260906064504 | 74 | 145 | 0.9 | 2.6 | 0.00 | 0.00 | 0.00 | 58 | 1014.2 |
| 20260906064003 | 74 | 108 | 0.0 | 1.7 | 0.00 | 0.00 | 0.00 | 58 | 1014.1 |
| 20260906063716 | 74 | 140 | 0.0 | 1.7 | 0.00 | 0.00 | 0.00 | 58 | 1014.2 |
| 20260906063003 | 75 | 182 | 0.9 | 3.5 | 0.00 | 0.00 | 0.00 | 57 | 1014.3 |
| 20260906062503 | 75 | 199 | 0.9 | 3.5 | 0.00 | 0.00 | 0.00 | 56 | 1014.3 |
| 20260906062214 | 75 | 209 | 1.7 | 6.1 | 0.00 | 0.00 | 0.00 | 56 | 1014.1 |
| 20260906061503 | 75 | 210 | 1.7 | 6.1 | 0.00 | 0.00 | 0.00 | 57 | 1014.0 |
| 20260906061004 | 74 | 197 | 0.9 | 2.6 | 0.00 | 0.00 | 0.00 | 57 | 1014.0 |
| 20260906060504 | 75 | 198 | 0.9 | 2.6 | 0.00 | 0.00 | 0.00 | 57 | 1014.1 |
| 20260906060004 | 75 | 180 | 0.9 | 2.6 | 0.00 | 0.00 | 0.00 | 57 | 1014.1 |
| 20260906055503 | 75 | 133 | 0.0 | 1.7 | 0.00 | 0.00 | 0.00 | 58 | 1014.1 |
| 20260906055217 | 75 | 0 | 0.0 | 0.0 | 0.00 | 0.00 | 0.00 | 58 | 1014.1 |
| 20260906054503 | 75 | 99 | 0.0 | 2.6 | 0.00 | 0.00 | 0.00 | 58 | 1014.1 |
| 20260906054003 | 75 | 96 | 0.9 | 2.6 | 0.00 | 0.00 | 0.00 | 58 | 1014.2 |
| 20260906053716 | 75 | 93 | 1.7 | 2.6 | 0.00 | 0.00 | 0.00 | 58 | 1014.1 |
| 20260906053003 | 76 | 108 | 0.9 | 2.6 | 0.00 | 0.00 | 0.00 | 56 | 1014.2 |
| 20260906052503 | 76 | 190 | 2.6 | 7.8 | 0.00 | 0.00 | 0.00 | 55 | 1014.0 |
| 20260906052004 | 76 | 202 | 4.3 | 7.8 | 0.00 | 0.00 | 0.00 | 55 | 1013.9 |
| 20260906051503 | 76 | 208 | 5.2 | 10.4 | 0.00 | 0.00 | 0.00 | 55 | 1013.8 |
| 20260906051003 | 77 | 209 | 5.2 | 10.4 | 0.00 | 0.00 | 0.00 | 54 | 1013.8 |
| 20260906050504 | 77 | 207 | 5.2 | 7.8 | 0.00 | 0.00 | 0.00 | 54 | 1013.7 |
| 20260906050217 | 77 | 207 | 5.2 | 7.8 | 0.00 | 0.00 | 0.00 | 54 | 1013.7 |
| 20260906045503 | 77 | 209 | 7.0 | 12.2 | 0.00 | 0.00 | 0.00 | 53 | 1013.6 |
| 20260906045004 | 77 | 210 | 7.8 | 12.2 | 0.00 | 0.00 | 0.00 | 53 | 1013.6 |
| 20260906044716 | 78 | 209 | 8.7 | 13.9 | 0.00 | 0.00 | 0.00 | 53 | 1013.6 |
| 20260906044003 | 77 | 206 | 8.7 | 13.9 | 0.00 | 0.00 | 0.00 | 53 | 1013.7 |
| 20260906043717 | 77 | 206 | 7.8 | 13.0 | 0.00 | 0.00 | 0.00 | 54 | 1013.8 |
| 20260906043003 | 77 | 208 | 7.8 | 12.2 | 0.00 | 0.00 | 0.00 | 55 | 1013.9 |
| 20260906042503 | 77 | 206 | 7.0 | 11.3 | 0.00 | 0.00 | 0.00 | 55 | 1014.0 |
| 20260906042004 | 77 | 206 | 7.0 | 10.4 | 0.00 | 0.00 | 0.00 | 55 | 1014.1 |
| 20260906041503 | 77 | 212 | 6.1 | 10.4 | 0.00 | 0.00 | 0.00 | 55 | 1014.0 |
| 20260906041003 | 77 | 215 | 6.1 | 10.4 | 0.00 | 0.00 | 0.00 | 54 | 1013.9 |
| 20260906040715 | 77 | 217 | 5.2 | 8.7 | 0.00 | 0.00 | 0.00 | 54 | 1013.9 |
| 20260906040004 | 77 | 206 | 5.2 | 9.6 | 0.00 | 0.00 | 0.00 | 54 | 1014.1 |
| 20260906035503 | 78 | 199 | 5.2 | 9.6 | 0.00 | 0.00 | 0.00 | 53 | 1014.1 |
| 20260906035003 | 78 | 193 | 3.5 | 7.8 | 0.00 | 0.00 | 0.00 | 53 | 1014.3 |
| 20260906034504 | 78 | 188 | 2.6 | 6.1 | 0.00 | 0.00 | 0.00 | 52 | 1014.3 |
| 20260906034003 | 78 | 199 | 2.6 | 6.1 | 0.00 | 0.00 | 0.00 | 51 | 1014.1 |
| 20260906033503 | 78 | 207 | 1.7 | 5.2 | 0.00 | 0.00 | 0.00 | 50 | 1014.1 |
| 20260906033004 | 78 | 193 | 0.0 | 4.3 | 0.00 | 0.00 | 0.00 | 50 | 1014.1 |
| 20260906032504 | 79 | 125 | 0.0 | 1.7 | 0.00 | 0.00 | 0.00 | 50 | 1014.1 |
| 20260906032003 | 79 | 63 | 0.9 | 3.5 | 0.00 | 0.00 | 0.00 | 50 | 1014.0 |
| 20260906031504 | 79 | 43 | 1.7 | 3.5 | 0.00 | 0.00 | 0.00 | 50 | 1014.0 |
| 20260906031217 | 78 | 48 | 2.6 | 4.3 | 0.00 | 0.00 | 0.00 | 51 | 1014.0 |
| 20260906030503 | 78 | 60 | 3.5 | 6.1 | 0.00 | 0.00 | 0.00 | 52 | 1014.0 |
| 20260906030004 | 79 | 98 | 2.6 | 5.2 | 0.00 | 0.00 | 0.00 | 52 | 1013.8 |
| 20260906025716 | 79 | 178 | 2.6 | 5.2 | 0.00 | 0.00 | 0.00 | 51 | 1013.8 |
| 20260906025003 | 79 | 209 | 4.3 | 8.7 | 0.00 | 0.00 | 0.00 | 51 | 1013.4 |
| 20260906024504 | 80 | 211 | 6.1 | 9.6 | 0.00 | 0.00 | 0.00 | 50 | 1013.2 |
| 20260906024215 | 80 | 210 | 6.1 | 9.6 | 0.00 | 0.00 | 0.00 | 50 | 1013.1 |
| 20260906023713 | 80 | 207 | 6.1 | 10.4 | 0.00 | 0.00 | 0.00 | 49 | 1012.9 |
| 20260906023004 | 80 | 200 | 5.2 | 7.8 | 0.00 | 0.00 | 0.00 | 48 | 1012.8 |
| 20260906022714 | 80 | 199 | 5.2 | 9.6 | 0.00 | 0.00 | 0.00 | 48 | 1012.8 |
| 20260906022003 | 81 | 204 | 7.0 | 11.3 | 0.00 | 0.00 | 0.00 | 47 | 1012.5 |
| 20260906021504 | 81 | 205 | 7.0 | 11.3 | 0.00 | 0.00 | 0.00 | 46 | 1012.4 |
| 20260906021003 | 81 | 202 | 6.1 | 11.3 | 0.00 | 0.00 | 0.00 | 46 | 1012.5 |
| 20260906020503 | 81 | 199 | 5.2 | 8.7 | 0.00 | 0.00 | 0.00 | 45 | 1012.4 |
| 20260906020004 | 82 | 195 | 3.5 | 7.8 | 0.00 | 0.00 | 0.00 | 44 | 1012.4 |
| 20260906015717 | 82 | 194 | 3.5 | 8.7 | 0.00 | 0.00 | 0.00 | 44 | 1012.3 |
| 20260906015004 | 82 | 200 | 5.2 | 8.7 | 0.00 | 0.00 | 0.00 | 44 | 1012.2 |
| 20260906014713 | 82 | 200 | 4.3 | 7.8 | 0.00 | 0.00 | 0.00 | 44 | 1012.1 |
| 20260906014003 | 82 | 198 | 4.3 | 7.8 | 0.00 | 0.00 | 0.00 | 45 | 1012.2 |
| 20260906013504 | 82 | 198 | 4.3 | 7.8 | 0.00 | 0.00 | 0.00 | 45 | 1012.1 |
| 20260906013003 | 82 | 197 | 4.3 | 7.8 | 0.00 | 0.00 | 0.00 | 45 | 1012.0 |
| 20260906012504 | 83 | 193 | 4.3 | 7.0 | 0.00 | 0.00 | 0.00 | 44 | 1012.0 |
| 20260906012003 | 83 | 187 | 4.3 | 8.7 | 0.00 | 0.00 | 0.00 | 44 | 1011.9 |
| 20260906011503 | 84 | 170 | 3.5 | 8.7 | 0.00 | 0.00 | 0.00 | 43 | 1012.0 |
| 20260906011003 | 84 | 142 | 3.5 | 8.7 | 0.00 | 0.00 | 0.00 | 42 | 1012.1 |
| 20260906010503 | 85 | 150 | 4.3 | 8.7 | 0.00 | 0.00 | 0.00 | 41 | 1011.9 |
| 20260906010003 | 85 | 148 | 3.5 | 7.8 | 0.00 | 0.00 | 0.00 | 40 | 1011.9 |
| 20260906005712 | 86 | 143 | 3.5 | 7.8 | 0.00 | 0.00 | 0.00 | 40 | 1012.0 |
| 20260906005004 | 87 | 159 | 4.3 | 9.6 | 0.00 | 0.00 | 0.00 | 39 | 1012.0 |
| 20260906004503 | 87 | 170 | 4.3 | 8.7 | 0.00 | 0.00 | 0.00 | 39 | 1012.0 |
| 20260906004003 | 86 | 167 | 5.2 | 11.3 | 0.00 | 0.00 | 0.00 | 39 | 1012.0 |
| 20260906003503 | 86 | 170 | 5.2 | 11.3 | 0.00 | 0.00 | 0.00 | 39 | 1012.1 |
| 20260906003003 | 86 | 164 | 5.2 | 13.9 | 0.00 | 0.00 | 0.00 | 39 | 1012.0 |
| 20260906002504 | 86 | 165 | 6.1 | 15.6 | 0.00 | 0.00 | 0.00 | 40 | 1012.1 |
| 20260906002003 | 87 | 170 | 7.0 | 15.6 | 0.00 | 0.00 | 0.00 | 40 | 1012.1 |
| 20260906001503 | 87 | 161 | 7.8 | 16.5 | 0.00 | 0.00 | 0.00 | 39 | 1012.2 |
| 20260906001004 | 87 | 149 | 8.7 | 16.5 | 0.00 | 0.00 | 0.00 | 41 | 1012.2 |
| 20260906000504 | 87 | 141 | 7.8 | 18.2 | 0.00 | 0.00 | 0.00 | 41 | 1012.2 |
| 20260906000003 | 88 | 151 | 9.6 | 20.0 | 0.00 | 0.00 | 0.00 | 40 | 1012.0 |
| 20260905235503 | 89 | 156 | 8.7 | 20.0 | 0.00 | 0.00 | 0.00 | 40 | 1012.1 |
| 20260905235003 | 90 | 141 | 7.8 | 18.2 | 0.00 | 0.00 | 0.00 | 39 | 1012.1 |
| 20260905234504 | 91 | 133 | 6.1 | 15.6 | 0.00 | 0.00 | 0.00 | 37 | 1011.9 |
| 20260905234217 | 92 | 135 | 4.3 | 15.6 | 0.00 | 0.00 | 0.00 | 35 | 1011.8 |
| 20260905233503 | 95 | 128 | 0.9 | 2.6 | 0.00 | 0.00 | 0.00 | 29 | 1011.4 |
| 20260905233003 | 95 | 125 | 0.9 | 2.6 | 0.00 | 0.00 | 0.00 | 29 | 1011.4 |
| 20260905232504 | 95 | 122 | 0.9 | 2.6 | 0.00 | 0.00 | 0.00 | 27 | 1011.4 |
| 20260905232003 | 95 | 122 | 0.0 | 1.7 | 0.00 | 0.00 | 0.00 | 27 | 1011.5 |
| 20260905231717 | 95 | 122 | 0.0 | 1.7 | 0.00 | 0.00 | 0.00 | 27 | 1011.4 |
| 20260905231004 | 95 | 123 | 0.9 | 2.6 | 0.00 | 0.00 | 0.00 | 28 | 1011.2 |
| 20260905230503 | 95 | 128 | 0.9 | 2.6 | 0.00 | 0.00 | 0.00 | 29 | 1011.2 |
| 20260905230003 | 96 | 130 | 0.9 | 2.6 | 0.00 | 0.00 | 0.00 | 26 | 1011.3 |
| 20260905225714 | 96 | 133 | 0.0 | 1.7 | 0.00 | 0.00 | 0.00 | 27 | 1011.2 |
| 20260905225003 | 96 | 133 | 0.0 | 2.6 | 0.00 | 0.00 | 0.00 | 25 | 1011.4 |
| 20260905224504 | 96 | 108 | 1.7 | 3.5 | 0.00 | 0.00 | 0.00 | 25 | 1011.5 |
| 20260905224004 | 96 | 100 | 1.7 | 3.5 | 0.00 | 0.00 | 0.00 | 28 | 1011.4 |
| 20260905223503 | 97 | 103 | 0.9 | 3.5 | 0.00 | 0.00 | 0.00 | 28 | 1011.5 |
| 20260905223003 | 97 | 120 | 0.9 | 3.5 | 0.00 | 0.00 | 0.00 | 25 | 1011.5 |
| 20260905222503 | 97 | 154 | 0.9 | 2.6 | 0.00 | 0.00 | 0.00 | 25 | 1011.5 |
| 20260905222214 | 98 | 157 | 0.9 | 2.6 | 0.00 | 0.00 | 0.00 | 24 | 1011.4 |
| 20260905221718 | 98 | 150 | 0.0 | 1.7 | 0.00 | 0.00 | 0.00 | 24 | 1011.4 |
| 20260905221004 | 98 | 213 | 0.9 | 2.6 | 0.00 | 0.00 | 0.00 | 24 | 1011.5 |
| 20260905220503 | 98 | 215 | 0.9 | 2.6 | 0.00 | 0.00 | 0.00 | 24 | 1011.6 |
| 20260905220003 | 98 | 201 | 0.9 | 3.5 | 0.00 | 0.00 | 0.00 | 23 | 1011.6 |
| 20260905215504 | 98 | 165 | 0.9 | 3.5 | 0.00 | 0.00 | 0.00 | 23 | 1011.7 |
| 20260905215003 | 98 | 116 | 0.9 | 3.5 | 0.00 | 0.00 | 0.00 | 24 | 1011.7 |
| 20260905214504 | 97 | 128 | 0.9 | 3.5 | 0.00 | 0.00 | 0.00 | 24 | 1011.7 |
| 20260905214004 | 97 | 132 | 1.7 | 4.3 | 0.00 | 0.00 | 0.00 | 24 | 1011.8 |
| 20260905213503 | 97 | 127 | 2.6 | 7.0 | 0.00 | 0.00 | 0.00 | 25 | 1011.9 |
| 20260905213004 | 98 | 121 | 1.7 | 7.0 | 0.00 | 0.00 | 0.00 | 25 | 1011.9 |
| 20260905212504 | 98 | 141 | 1.7 | 3.5 | 0.00 | 0.00 | 0.00 | 24 | 1011.8 |
| 20260905212003 | 98 | 185 | 1.7 | 5.2 | 0.00 | 0.00 | 0.00 | 24 | 1011.9 |
| 20260905211713 | 98 | 163 | 2.6 | 7.8 | 0.00 | 0.00 | 0.00 | 23 | 1011.9 |
| 20260905211216 | 98 | 92 | 2.6 | 7.8 | 0.00 | 0.00 | 0.00 | 24 | 1011.9 |